Regional Weather Roundup
Issued by NWS

Home | Current Version | Previous Version | Text Only | Print | Product List | Glossary On
Versions: 1 2 3 4 5 6 7 8 9 10 11 12 13 14 15 16 17 18 19 20 21 22 23 24 25 26 27 28 29 30 31 32 33 34 35 36 37 38 39 40 41 42 43 44 45 46 47 48 49 50
000
ASUS43 KLSX 011207
RWRMO

WEATHER SUMMARY FOR MISSOURI
NATIONAL WEATHER SERVICE SPRINGFIELD MO
700 AM CDT FRI AUG 01 2014

NOTE: "FAIR" INDICATES FEW OR NO CLOUDS BELOW 12,000 FEET WITH NO
       SIGNIFICANT WEATHER AND/OR OBSTRUCTIONS TO VISIBILITY.
       CURRENT SKY AND/OR WEATHER CONDITIONS ARE NOT AVAILABLE FOR
       CHILLICOTHE AND FARMINGTON.

MOZ001>031-035>038-043-044-053-054-011300-
...NORTHERN AND WESTERN MISSOURI...

CITY           SKY/WX    TMP DP  RH WIND       PRES   REMARKS
KANSAS CTY INT LGT RAIN  67  62  84 N6        30.09R
6HR MIN TEMP:  65; 6HR MAX TEMP:  71; 6HR PCP: TRACE;

KANSAS C DTWN  CLOUDY    70  62  76 NW3       30.08R
6HR MIN TEMP:  69; 6HR MAX TEMP:  74; 6HR PCP: TRACE;

LEE`S SUMMIT   MOCLDY    67  61  81 CALM      30.09R
6HR MIN TEMP:  63; 6HR MAX TEMP:  70;

ST JOSEPH      LGT RAIN  65  64  97 CALM      30.08F FOG
6HR MIN TEMP:  65; 6HR MAX TEMP:  69; 6HR PCP:  0.04;

CHILLICOTHE      N/A     67  61  81 CALM      30.09S
6HR MIN TEMP:  63; 6HR MAX TEMP:  68;

KIRKSVILLE     PTCLDY    65  59  81 W3        30.09R
6HR MIN TEMP:  61; 6HR MAX TEMP:  67;


$$
MOZ066>068-077>081-088>096-101>105-011300-
...SOUTHWEST MISSOURI...

CITY           SKY/WX    TMP DP  RH WIND       PRES   REMARKS
SPRINGFIELD    FOG       62  61  96 CALM      30.10R VSB<1/4
6HR MIN TEMP:  62; 6HR MAX TEMP:  65;

JOPLIN         CLOUDY    65  65 100 CALM      30.10R FOG
6HR MIN TEMP:  62; 6HR MAX TEMP:  65;


$$
MOZ032>034-039>042-045>050-055>058-069>072-011300-
...CENTRAL MISSOURI...

CITY           SKY/WX    TMP DP  RH WIND       PRES   REMARKS
COLUMBIA       PTCLDY    61  60  97 S3        30.08R
6HR MIN TEMP:  61; 6HR MAX TEMP:  66;

JEFFERSON CITY PTCLDY    64  61  90 CALM      30.08R
6HR MIN TEMP:  62; 6HR MAX TEMP:  67;

ROLLA          CLEAR     63  62  97 S5        30.08S
6HR MIN TEMP:  61; 6HR MAX TEMP:  66;

SEDALIA        PTCLDY    62  58  86 CALM      30.08S FOG
6HR MIN TEMP:  60; 6HR MAX TEMP:  66;

WHITEMAN AFB   MOCLDY    62  55  76 CALM      30.07R
OSAGE BEACH    CLEAR     63  57  82 CALM      30.09R

$$
MOZ051-052-059>065-011300-
...EAST CENTRAL MISSOURI...

CITY           SKY/WX    TMP DP  RH WIND       PRES   REMARKS
ST LOUIS INTL  PTCLDY    68  63  84 CALM      30.09R
6HR MIN TEMP:  68; 6HR MAX TEMP:  74;

SPIRIT OF STL  PTCLDY    61  59  93 CALM      30.08R FOG
6HR MIN TEMP:  60; 6HR MAX TEMP:  65;

ST CHARLES     PTCLDY    63  62  97 CALM      30.08R FOG
6HR MIN TEMP:  61; 6HR MAX TEMP:  66;


$$
MOZ072>076-082>087-097>100-106>115-011300-
...SOUTH CENTRAL AND SOUTHEAST MISSOURI...

CITY           SKY/WX    TMP DP  RH WIND       PRES   REMARKS
CAPE GIRARDEAU MOCLDY    64  62  93 CALM      30.08S FOG
6HR MIN TEMP:  61; 6HR MAX TEMP:  64;

FARMINGTON     CLOUDY    64  63  94 CALM      30.12S VSB<1/4
6HR MIN TEMP:  63; 6HR MAX TEMP:  64;

POPLAR BLUFF   FOG       64  61  90 CALM      30.08R VSB 3/4
6HR MIN TEMP:  61; 6HR MAX TEMP:  64;

WEST PLAINS    CLOUDY    60  58  92 CALM      30.11S FOG
6HR MIN TEMP:  57; 6HR MAX TEMP:  61;


$$



USA.gov is the U.S. government's official web portal to all federal, state and local government web resources and services.